DELTA 1 DEB, 42656

Orbit data source: Space-Track

DELTA 1 DEB, 42656 is space debris in SSO originally from a launch on Thu, 12 Jun 1975 UTC launched from the Air Force Western Test Range (AFWTR). Debris objects in space refer to the collection of defunct objects orbiting the Earth. Examples of debris include non-operational satellites, rocket bodies, and fragments generated from explosions, collisions, or faulty payload assembly.

Loading next visibility...
Identifier
42656, 1975-052MR
Orbit
SSO
Country
Flag of USUS
Related business
Manufacturer
Unknown
Mission
Spacecraft
Bus & Motor
Unknown
Mass
Unknown
Launch date (UTC)
1975-06-12 (51 years ago)
Launch vehicle
Unknown
Launch site
Air Force Western Test Range (AFWTR)
Object type
Payload
Rocket body
Debris
Shape & HBR
Unknown shape, 0.1 m
Radar Cross Section
Small (<0.1 m²)

Expand to show TLE details & history
Last TLE update: 2 weeks ago

TLE from 2 weeks ago
0 DELTA 1 DEB
1 42656U 75052MR  25334.70580851  .00000194  00000-0  46525-3 0  9992
2 42656  99.6706 151.2258 0067521  36.9493 323.6256 13.34367283585332
Epoch: 2025-11-30T16:56Z
TLE epoch observation values (Epoch: 2025-11-30T16:56:21.855Z)
Latitude
-0.00005°
Longitude
-172.68108°
Altitude
1,092.395 km
Speed
7.326 km/s
True Right ascension
10h 04m 54s
True Declination
0° 00' 00"
Sunlit
Object was in daylight at epoch
Visualization orbit readout
Latitude
Unknown
Longitude
Unknown
Altitude
Unknown
Speed
Unknown
Apparent Right ascension
Unknown
Apparent Declination
Unknown
Sunlit
N/A
Visualization observer readout
Local Sidereal Time
14:57:02
Azimuth
Unknown
Elevation
Unknown
Doppler factor
Unknown
Orbital elements
Apogee altitude
1,178.336 km
Perigee altitude
1,076.976 km
Semi-major axis
7,505.793 km
Eccentricity
0.00675
Inclination
99.6706°
RAAN
151.2258°
Arg. of periapsis
36.9493°
True anomaly
323.1636°
Mean anomaly
323.6256°
Eccentric anomaly
323.39491°
Mean motion
3.33771 °/min
Orbital period
107.86 mins
BSTAR
0.00046525
Loading maneuver chart data...
Computing Atmospheric mass density...
Loading historical data...
Loading historical data...
Loading historical data...
Loading historical data...
Loading historical data...
Loading historical data...
Loading historical data...

Documentation

Showing up to 5 results
|